Time,TemperatureF,DewpointF,PressureIn,WindDirection,WindDirectionDegrees,WindSpeedMPH,WindSpeedGustMPH,Humidity,HourlyPrecipIn,Conditions,Clouds,dailyrainin,SoftwareType,DateUTC
2013-08-27 00:03:00,78.9,55.1,29.23,South,172,0.0,0.0,44,0.00,,---,0.00,VWS V14.00,2013-08-27 05:03:00,
2013-08-27 00:06:00,79.0,55.3,29.23,South,172,0.0,0.0,44,0.00,,---,0.00,VWS V14.00,2013-08-27 05:06:00,
2013-08-27 00:09:00,79.0,55.3,29.23,South,172,0.0,0.0,44,0.00,,---,0.00,VWS V14.00,2013-08-27 05:09:00,
2013-08-27 00:15:00,79.0,55.3,29.23,South,172,0.0,0.0,44,0.00,,---,0.00,VWS V14.00,2013-08-27 05:15:00,
2013-08-27 00:17:00,79.0,55.3,29.23,South,172,0.0,0.0,44,0.00,,---,0.00,VWS V14.00,2013-08-27 05:17:00,
2013-08-27 00:18:00,79.0,55.3,29.23,South,172,0.0,0.0,44,0.00,,---,0.00,VWS V14.00,2013-08-27 05:18:00,
2013-08-27 00:24:00,79.0,55.3,29.23,South,172,0.0,0.0,44,0.00,,---,0.00,VWS V14.00,2013-08-27 05:24:00,
2013-08-27 00:27:00,79.0,55.9,29.23,South,172,2.7,3.1,45,0.00,,---,0.00,VWS V14.00,2013-08-27 05:27:00,
2013-08-27 00:30:00,79.0,55.9,29.23,South,172,0.0,3.6,45,0.00,,---,0.00,VWS V14.00,2013-08-27 05:30:00,
2013-08-27 00:32:00,79.0,55.9,29.23,South,172,0.0,3.6,45,0.00,,---,0.00,VWS V14.00,2013-08-27 05:32:00,
2013-08-27 00:33:00,79.0,55.9,29.23,South,172,0.0,0.0,45,0.00,,---,0.00,VWS V14.00,2013-08-27 05:33:00,
2013-08-27 00:36:00,79.0,55.9,29.23,South,172,0.0,0.0,45,0.00,,---,0.00,VWS V14.00,2013-08-27 05:36:00,
2013-08-27 00:39:00,79.0,55.9,29.23,South,172,0.0,0.0,45,0.00,,---,0.00,VWS V14.00,2013-08-27 05:39:00,
2013-08-27 00:45:00,79.2,56.1,29.23,South,172,0.0,0.0,45,0.00,,---,0.00,VWS V14.00,2013-08-27 05:45:00,
2013-08-27 00:49:00,79.2,56.1,29.23,South,172,0.0,0.0,45,0.00,,---,0.00,VWS V14.00,2013-08-27 05:49:00,
2013-08-27 00:52:00,79.2,56.1,29.23,South,172,0.0,0.0,45,0.00,,---,0.00,VWS V14.00,2013-08-27 05:52:00,
2013-08-27 00:55:00,79.2,56.1,29.23,South,172,0.0,0.0,45,0.00,,---,0.00,VWS V14.00,2013-08-27 05:55:00,
2013-08-27 00:58:00,79.2,56.7,29.23,South,172,0.0,0.0,46,0.00,,---,0.00,VWS V14.00,2013-08-27 05:58:00,
2013-08-27 01:01:00,79.2,56.7,29.23,South,172,0.0,0.0,46,0.00,,---,0.00,VWS V14.00,2013-08-27 06:01:00,
2013-08-27 01:02:00,79.2,56.7,29.23,South,172,0.0,0.0,46,0.00,,---,0.00,VWS V14.00,2013-08-27 06:02:00,
2013-08-27 01:04:00,79.2,56.7,29.23,South,172,0.0,0.0,46,0.00,,---,0.00,VWS V14.00,2013-08-27 06:04:00,
2013-08-27 01:10:00,79.2,56.7,29.23,South,172,0.0,0.0,46,0.00,,---,0.00,VWS V14.00,2013-08-27 06:10:00,
2013-08-27 01:16:00,79.2,56.7,29.23,South,172,0.0,0.0,46,0.00,,---,0.00,VWS V14.00,2013-08-27 06:16:00,
2013-08-27 01:17:00,79.2,56.7,29.23,South,172,0.0,0.0,46,0.00,,---,0.00,VWS V14.00,2013-08-27 06:17:00,
2013-08-27 01:22:00,79.2,56.7,29.23,South,172,0.0,0.0,46,0.00,,---,0.00,VWS V14.00,2013-08-27 06:22:00,
2013-08-27 01:25:00,79.2,56.7,29.23,South,172,0.0,0.0,46,0.00,,---,0.00,VWS V14.00,2013-08-27 06:25:00,
2013-08-27 01:28:00,79.2,56.7,29.23,South,172,0.0,0.0,46,0.00,,---,0.00,VWS V14.00,2013-08-27 06:28:00,
2013-08-27 01:31:00,79.2,56.7,29.23,South,172,0.0,0.0,46,0.00,,---,0.00,VWS V14.00,2013-08-27 06:31:00,
2013-08-27 01:32:00,79.2,56.7,29.23,South,172,0.0,0.0,46,0.00,,---,0.00,VWS V14.00,2013-08-27 06:32:00,
2013-08-27 01:37:00,79.2,57.3,29.23,South,172,0.0,0.0,47,0.00,,---,0.00,VWS V14.00,2013-08-27 06:37:00,
2013-08-27 01:40:00,79.2,57.3,29.23,South,172,0.0,0.0,47,0.00,,---,0.00,VWS V14.00,2013-08-27 06:40:00,
2013-08-27 01:43:00,79.2,57.3,29.23,South,172,0.0,0.0,47,0.00,,---,0.00,VWS V14.00,2013-08-27 06:43:00,
2013-08-27 01:46:00,79.2,57.3,29.23,South,172,0.0,0.0,47,0.00,,---,0.00,VWS V14.00,2013-08-27 06:46:00,
2013-08-27 01:49:00,79.2,57.3,29.23,South,172,0.0,0.0,47,0.00,,---,0.00,VWS V14.00,2013-08-27 06:49:00,
2013-08-27 01:52:00,79.2,57.3,29.23,South,172,0.0,0.0,47,0.00,,---,0.00,VWS V14.00,2013-08-27 06:52:00,
2013-08-27 01:58:00,79.2,57.3,29.23,South,172,0.0,0.0,47,0.00,,---,0.00,VWS V14.00,2013-08-27 06:58:00,
2013-08-27 02:01:00,79.2,57.3,29.23,South,172,3.1,3.1,47,0.00,,---,0.00,VWS V14.00,2013-08-27 07:01:00,
2013-08-27 02:04:00,79.2,57.3,29.23,South,172,2.2,2.7,47,0.00,,---,0.00,VWS V14.00,2013-08-27 07:04:00,
2013-08-27 02:10:00,79.2,57.9,29.23,South,172,0.0,2.7,48,0.00,,---,0.00,VWS V14.00,2013-08-27 07:10:00,
2013-08-27 02:13:00,79.2,57.9,29.23,South,172,0.0,2.7,48,0.00,,---,0.00,VWS V14.00,2013-08-27 07:13:00,
2013-08-27 02:16:00,79.2,57.9,29.23,South,172,0.0,2.7,48,0.00,,---,0.00,VWS V14.00,2013-08-27 07:16:00,
2013-08-27 02:17:00,79.2,57.9,29.23,South,172,0.0,2.7,48,0.00,,---,0.00,VWS V14.00,2013-08-27 07:17:00,
2013-08-27 02:22:00,79.2,57.9,29.23,South,172,0.0,0.0,48,0.00,,---,0.00,VWS V14.00,2013-08-27 07:22:00,
2013-08-27 02:28:00,79.2,57.9,29.23,South,172,0.0,0.0,48,0.00,,---,0.00,VWS V14.00,2013-08-27 07:28:00,
2013-08-27 02:32:00,79.2,57.9,29.23,South,172,0.0,0.0,48,0.00,,---,0.00,VWS V14.00,2013-08-27 07:32:00,
2013-08-27 02:34:00,79.2,57.9,29.23,South,172,0.0,0.0,48,0.00,,---,0.00,VWS V14.00,2013-08-27 07:34:00,
2013-08-27 02:40:00,79.2,57.9,29.23,South,172,0.0,0.0,48,0.00,,---,0.00,VWS V14.00,2013-08-27 07:40:00,
2013-08-27 02:43:00,79.2,57.9,29.23,South,172,0.0,0.0,48,0.00,,---,0.00,VWS V14.00,2013-08-27 07:43:00,
2013-08-27 02:46:00,79.2,57.9,29.23,South,172,0.0,0.0,48,0.00,,---,0.00,VWS V14.00,2013-08-27 07:46:00,
2013-08-27 02:49:00,79.4,58.0,29.23,South,172,0.0,0.0,48,0.00,,---,0.00,VWS V14.00,2013-08-27 07:49:00,
2013-08-27 02:52:00,79.4,58.0,29.23,South,172,0.0,0.0,48,0.00,,---,0.00,VWS V14.00,2013-08-27 07:52:00,
2013-08-27 02:55:00,79.4,58.0,29.23,South,172,0.0,0.0,48,0.00,,---,0.00,VWS V14.00,2013-08-27 07:55:00,
2013-08-27 02:58:00,79.4,58.0,29.23,South,172,0.0,0.0,48,0.00,,---,0.00,VWS V14.00,2013-08-27 07:58:00,
2013-08-27 03:01:00,79.4,58.0,29.23,South,172,0.0,0.0,48,0.00,,---,0.00,VWS V14.00,2013-08-27 08:01:00,
2013-08-27 03:02:00,79.4,58.0,29.23,South,172,0.0,0.0,48,0.00,,---,0.00,VWS V14.00,2013-08-27 08:02:00,
2013-08-27 03:07:00,79.4,58.0,29.23,South,172,0.0,0.0,48,0.00,,---,0.00,VWS V14.00,2013-08-27 08:07:00,
2013-08-27 03:10:00,79.4,58.0,29.23,South,172,0.0,0.0,48,0.00,,---,0.00,VWS V14.00,2013-08-27 08:10:00,
2013-08-27 03:13:00,79.4,58.0,29.23,South,172,0.0,0.0,48,0.00,,---,0.00,VWS V14.00,2013-08-27 08:13:00,
2013-08-27 03:16:00,79.4,58.0,29.23,South,172,0.0,0.0,48,0.00,,---,0.00,VWS V14.00,2013-08-27 08:16:00,
2013-08-27 03:19:00,79.4,58.0,29.23,South,172,0.0,0.0,48,0.00,,---,0.00,VWS V14.00,2013-08-27 08:19:00,
2013-08-27 03:22:00,79.4,58.0,29.23,South,172,0.0,0.0,48,0.00,,---,0.00,VWS V14.00,2013-08-27 08:22:00,
2013-08-27 03:25:00,79.4,58.0,29.23,South,172,0.0,0.0,48,0.00,,---,0.00,VWS V14.00,2013-08-27 08:25:00,
2013-08-27 03:28:00,79.2,57.9,29.23,South,172,0.0,0.0,48,0.00,,---,0.00,VWS V14.00,2013-08-27 08:28:00,
2013-08-27 03:31:00,79.2,57.9,29.23,South,172,0.0,0.0,48,0.00,,---,0.00,VWS V14.00,2013-08-27 08:31:00,
2013-08-27 03:32:00,79.2,57.9,29.23,South,172,0.0,0.0,48,0.00,,---,0.00,VWS V14.00,2013-08-27 08:32:00,
2013-08-27 03:34:00,79.2,57.9,29.23,South,172,0.0,0.0,48,0.00,,---,0.00,VWS V14.00,2013-08-27 08:34:00,
2013-08-27 03:37:00,79.2,57.9,29.23,South,172,0.0,0.0,48,0.00,,---,0.00,VWS V14.00,2013-08-27 08:37:00,
2013-08-27 03:40:00,79.4,58.0,29.23,South,172,0.0,0.0,48,0.00,,---,0.00,VWS V14.00,2013-08-27 08:40:00,
2013-08-27 03:46:00,79.4,58.0,29.23,South,172,0.0,0.0,48,0.00,,---,0.00,VWS V14.00,2013-08-27 08:46:00,
2013-08-27 03:47:00,79.4,58.0,29.23,South,172,0.0,0.0,48,0.00,,---,0.00,VWS V14.00,2013-08-27 08:47:00,
2013-08-27 03:52:00,79.4,58.0,29.23,South,172,0.0,0.0,48,0.00,,---,0.00,VWS V14.00,2013-08-27 08:52:00,
2013-08-27 03:55:00,79.4,58.0,29.23,South,172,0.0,0.0,48,0.00,,---,0.00,VWS V14.00,2013-08-27 08:55:00,
2013-08-27 04:01:00,79.2,58.4,29.23,South,172,0.0,2.7,49,0.00,,---,0.00,VWS V14.00,2013-08-27 09:01:00,
2013-08-27 04:02:00,79.2,58.4,29.23,South,172,0.0,2.7,49,0.00,,---,0.00,VWS V14.00,2013-08-27 09:02:00,
2013-08-27 04:07:00,79.2,58.4,29.23,SSW,193,3.1,3.1,49,0.00,,---,0.00,VWS V14.00,2013-08-27 09:07:00,
2013-08-27 04:13:00,79.2,58.4,29.23,SSW,193,2.2,3.6,49,0.00,,---,0.00,VWS V14.00,2013-08-27 09:13:00,
2013-08-27 04:16:00,79.2,58.4,29.23,SSE,154,0.0,3.6,49,0.00,,---,0.00,VWS V14.00,2013-08-27 09:16:00,
2013-08-27 04:17:00,79.2,58.4,29.23,SSE,154,0.0,3.6,49,0.00,,---,0.00,VWS V14.00,2013-08-27 09:17:00,
2013-08-27 04:20:00,79.2,58.4,29.23,SSE,154,2.7,2.7,49,0.00,,---,0.00,VWS V14.00,2013-08-27 09:20:00,
2013-08-27 04:23:00,79.2,58.4,29.23,SSE,154,0.0,2.7,49,0.00,,---,0.00,VWS V14.00,2013-08-27 09:23:00,
2013-08-27 04:29:00,79.2,58.4,29.23,SSE,154,0.0,2.7,49,0.00,,---,0.00,VWS V14.00,2013-08-27 09:29:00,
2013-08-27 04:32:00,79.2,58.4,29.23,SSW,200,0.0,2.7,49,0.00,,---,0.00,VWS V14.00,2013-08-27 09:32:00,
2013-08-27 04:35:00,79.2,58.4,29.23,SSW,200,0.0,0.0,49,0.00,,---,0.00,VWS V14.00,2013-08-27 09:35:00,
2013-08-27 04:38:00,79.2,58.4,29.23,SSW,200,0.0,2.7,49,0.00,,---,0.00,VWS V14.00,2013-08-27 09:38:00,
2013-08-27 04:41:00,79.2,58.4,29.23,South,180,3.6,3.6,49,0.00,,---,0.00,VWS V14.00,2013-08-27 09:41:00,
2013-08-27 04:44:00,79.2,58.4,29.23,South,181,2.7,4.0,49,0.00,,---,0.00,VWS V14.00,2013-08-27 09:44:00,
2013-08-27 04:47:00,79.2,58.4,29.23,SSW,210,2.7,4.0,49,0.00,,---,0.00,VWS V14.00,2013-08-27 09:47:00,
2013-08-27 04:50:00,79.2,58.4,29.23,SSW,210,2.2,3.6,49,0.00,,---,0.00,VWS V14.00,2013-08-27 09:50:00,
2013-08-27 04:53:00,79.2,58.4,29.23,SSW,210,0.0,3.6,49,0.00,,---,0.00,VWS V14.00,2013-08-27 09:53:00,
2013-08-27 04:56:00,79.2,58.4,29.23,SSW,210,0.0,3.6,49,0.00,,---,0.00,VWS V14.00,2013-08-27 09:56:00,
2013-08-27 04:59:00,79.2,58.4,29.23,SSW,210,0.0,3.6,49,0.00,,---,0.00,VWS V14.00,2013-08-27 09:59:00,
2013-08-27 05:02:00,79.2,58.4,29.23,SSW,210,0.0,3.6,49,0.00,,---,0.00,VWS V14.00,2013-08-27 10:02:00,
2013-08-27 05:05:00,79.2,58.4,29.23,SSW,210,0.0,0.0,49,0.00,,---,0.00,VWS V14.00,2013-08-27 10:05:00,
2013-08-27 05:11:00,79.2,58.4,29.23,SSW,210,0.0,0.0,49,0.00,,---,0.00,VWS V14.00,2013-08-27 10:11:00,
2013-08-27 05:14:00,79.2,58.4,29.23,SSW,210,0.0,0.0,49,0.00,,---,0.00,VWS V14.00,2013-08-27 10:14:00,
2013-08-27 05:17:00,79.2,58.4,29.23,SSW,210,0.0,0.0,49,0.00,,---,0.00,VWS V14.00,2013-08-27 10:17:00,
2013-08-27 05:20:00,79.2,58.4,29.23,SSW,210,0.0,0.0,49,0.00,,---,0.00,VWS V14.00,2013-08-27 10:20:00,
2013-08-27 05:23:00,79.2,58.4,29.23,SSW,210,0.0,0.0,49,0.00,,---,0.00,VWS V14.00,2013-08-27 10:23:00,
2013-08-27 05:29:00,79.2,58.4,29.23,SSW,210,0.0,0.0,49,0.00,,---,0.00,VWS V14.00,2013-08-27 10:29:00,
2013-08-27 05:32:00,79.2,58.4,29.23,SSW,210,0.0,0.0,49,0.00,,---,0.00,VWS V14.00,2013-08-27 10:32:00,
2013-08-27 05:35:00,79.2,58.4,29.23,SSW,210,0.0,0.0,49,0.00,,---,0.00,VWS V14.00,2013-08-27 10:35:00,
2013-08-27 05:38:00,79.0,58.3,29.23,SSW,210,0.0,0.0,49,0.00,,---,0.00,VWS V14.00,2013-08-27 10:38:00,
2013-08-27 05:44:00,79.0,58.3,29.23,SSW,210,0.0,0.0,49,0.00,,---,0.00,VWS V14.00,2013-08-27 10:44:00,
2013-08-27 05:47:00,79.0,58.3,29.23,SSW,210,0.0,0.0,49,0.00,,---,0.00,VWS V14.00,2013-08-27 10:47:00,
2013-08-27 05:50:00,79.0,58.3,29.23,SSW,210,0.0,0.0,49,0.00,,---,0.00,VWS V14.00,2013-08-27 10:50:00,
2013-08-27 05:56:00,79.0,58.3,29.23,SSW,210,0.0,0.0,49,0.00,,---,0.00,VWS V14.00,2013-08-27 10:56:00,
2013-08-27 06:02:00,79.0,58.3,29.23,SSW,210,0.0,0.0,49,0.00,,---,0.00,VWS V14.00,2013-08-27 11:02:00,
2013-08-27 06:05:00,79.0,58.3,29.23,SSW,210,0.0,0.0,49,0.00,,---,0.00,VWS V14.00,2013-08-27 11:05:00,
2013-08-27 06:08:00,79.0,58.3,29.23,SSW,210,0.0,0.0,49,0.00,,---,0.00,VWS V14.00,2013-08-27 11:08:00,
2013-08-27 06:11:00,79.0,58.3,29.23,SSW,210,0.0,0.0,49,0.00,,---,0.00,VWS V14.00,2013-08-27 11:11:00,
2013-08-27 06:17:00,79.0,58.3,29.23,SSW,210,0.0,0.0,49,0.00,,---,0.00,VWS V14.00,2013-08-27 11:17:00,
2013-08-27 06:23:00,79.0,58.3,29.23,SSW,210,0.0,0.0,49,0.00,,---,0.00,VWS V14.00,2013-08-27 11:23:00,
2013-08-27 06:26:00,79.0,58.3,29.23,SSW,210,0.0,0.0,49,0.00,,---,0.00,VWS V14.00,2013-08-27 11:26:00,
2013-08-27 06:29:00,79.0,58.3,29.23,SSW,210,0.0,0.0,49,0.00,,---,0.00,VWS V14.00,2013-08-27 11:29:00,
2013-08-27 06:32:00,79.0,58.3,29.23,SSW,210,0.0,0.0,49,0.00,,---,0.00,VWS V14.00,2013-08-27 11:32:00,
2013-08-27 06:38:00,79.0,58.3,29.23,SSW,210,0.0,0.0,49,0.00,,---,0.00,VWS V14.00,2013-08-27 11:38:00,
2013-08-27 06:41:00,79.0,58.3,29.23,SSW,210,0.0,0.0,49,0.00,,---,0.00,VWS V14.00,2013-08-27 11:41:00,
2013-08-27 06:44:00,79.0,58.3,29.23,SSW,210,0.0,0.0,49,0.00,,---,0.00,VWS V14.00,2013-08-27 11:44:00,
2013-08-27 06:47:00,78.9,58.1,29.23,SSW,210,0.0,0.0,49,0.00,,---,0.00,VWS V14.00,2013-08-27 11:47:00,
2013-08-27 06:50:00,78.9,58.1,29.23,SSW,210,0.0,0.0,49,0.00,,---,0.00,VWS V14.00,2013-08-27 11:50:00,
2013-08-27 06:53:00,78.9,58.1,29.23,SSW,210,0.0,0.0,49,0.00,,---,0.00,VWS V14.00,2013-08-27 11:53:00,
2013-08-27 06:59:00,78.9,58.1,29.23,SSW,210,0.0,0.0,49,0.00,,---,0.00,VWS V14.00,2013-08-27 11:59:00,
2013-08-27 07:02:00,78.9,58.1,29.23,SSW,210,0.0,0.0,49,0.00,,---,0.00,VWS V14.00,2013-08-27 12:02:00,
2013-08-27 07:05:00,78.9,58.1,29.23,SSW,210,0.0,0.0,49,0.00,,---,0.00,VWS V14.00,2013-08-27 12:05:00,
2013-08-27 07:08:00,78.9,58.1,29.23,SSW,210,0.0,0.0,49,0.00,,---,0.00,VWS V14.00,2013-08-27 12:08:00,
2013-08-27 07:11:00,78.9,58.1,29.23,SSW,210,0.0,0.0,49,0.00,,---,0.00,VWS V14.00,2013-08-27 12:11:00,
2013-08-27 07:14:00,78.9,58.1,29.23,SSW,210,0.0,0.0,49,0.00,,---,0.00,VWS V14.00,2013-08-27 12:14:00,
2013-08-27 07:17:00,78.9,58.1,29.23,SSW,210,0.0,0.0,49,0.00,,---,0.00,VWS V14.00,2013-08-27 12:17:00,
2013-08-27 07:23:00,78.9,58.1,29.23,SSW,210,0.0,0.0,49,0.00,,---,0.00,VWS V14.00,2013-08-27 12:23:00,
2013-08-27 07:29:00,78.9,58.1,29.23,SSW,210,0.0,0.0,49,0.00,,---,0.00,VWS V14.00,2013-08-27 12:29:00,
2013-08-27 07:35:00,78.9,58.1,29.23,SSW,210,0.0,0.0,49,0.00,,---,0.00,VWS V14.00,2013-08-27 12:35:00,
2013-08-27 07:38:00,78.9,58.1,29.23,SSW,210,0.0,0.0,49,0.00,,---,0.00,VWS V14.00,2013-08-27 12:38:00,
2013-08-27 07:41:00,78.9,58.1,29.23,SSW,210,0.0,0.0,49,0.00,,---,0.00,VWS V14.00,2013-08-27 12:41:00,
2013-08-27 07:44:00,78.9,58.1,29.23,SSW,210,0.0,0.0,49,0.00,,---,0.00,VWS V14.00,2013-08-27 12:44:00,
2013-08-27 07:47:00,78.9,58.1,29.23,SSW,210,0.0,0.0,49,0.00,,---,0.00,VWS V14.00,2013-08-27 12:47:00,
2013-08-27 07:50:00,78.9,58.1,29.23,SSW,210,0.0,0.0,49,0.00,,---,0.00,VWS V14.00,2013-08-27 12:50:00,
2013-08-27 07:56:00,79.0,58.3,29.23,SSW,210,0.0,0.0,49,0.00,,---,0.00,VWS V14.00,2013-08-27 12:56:00,
2013-08-27 07:59:00,79.0,58.3,29.23,SSW,210,0.0,0.0,49,0.00,,---,0.00,VWS V14.00,2013-08-27 12:59:00,
2013-08-27 08:02:00,79.0,58.3,29.23,SSW,210,3.1,3.6,49,0.00,,---,0.00,VWS V14.00,2013-08-27 13:02:00,
2013-08-27 08:05:00,79.0,58.3,29.23,SSE,167,4.0,4.0,49,0.00,,---,0.00,VWS V14.00,2013-08-27 13:05:00,
2013-08-27 08:11:00,79.0,58.3,29.23,South,174,0.0,4.0,49,0.00,,---,0.00,VWS V14.00,2013-08-27 13:11:00,
2013-08-27 08:14:00,79.0,58.3,29.23,South,176,2.7,4.0,49,0.00,,---,0.00,VWS V14.00,2013-08-27 13:14:00,
2013-08-27 08:17:00,79.0,58.3,29.23,South,176,2.7,4.0,49,0.00,,---,0.00,VWS V14.00,2013-08-27 13:17:00,
2013-08-27 08:20:00,79.2,58.4,29.23,South,176,0.0,3.6,49,0.00,,---,0.00,VWS V14.00,2013-08-27 13:20:00,
2013-08-27 08:23:00,79.2,58.4,29.23,South,176,0.0,3.6,49,0.00,,---,0.00,VWS V14.00,2013-08-27 13:23:00,
2013-08-27 08:26:00,79.2,58.4,29.23,South,176,0.0,3.6,49,0.00,,---,0.00,VWS V14.00,2013-08-27 13:26:00,
2013-08-27 08:32:00,79.2,58.4,29.23,South,176,0.0,3.6,49,0.00,,---,0.00,VWS V14.00,2013-08-27 13:32:00,
2013-08-27 08:35:00,79.2,58.4,29.23,South,176,0.0,4.0,49,0.00,,---,0.00,VWS V14.00,2013-08-27 13:35:00,
2013-08-27 08:38:00,79.2,58.4,29.23,South,176,0.0,4.0,49,0.00,,---,0.00,VWS V14.00,2013-08-27 13:38:00,
2013-08-27 08:41:00,79.4,58.6,29.23,South,176,0.0,4.0,49,0.00,,---,0.00,VWS V14.00,2013-08-27 13:41:00,
2013-08-27 08:44:00,79.4,58.6,29.23,South,176,0.0,4.0,49,0.00,,---,0.00,VWS V14.00,2013-08-27 13:44:00,
2013-08-27 08:47:00,79.4,58.6,29.23,South,176,0.0,4.0,49,0.00,,---,0.00,VWS V14.00,2013-08-27 13:47:00,
2013-08-27 08:50:00,79.4,58.6,29.23,South,176,0.0,0.0,49,0.00,,---,0.00,VWS V14.00,2013-08-27 13:50:00,
2013-08-27 08:53:00,79.4,58.6,29.23,South,176,0.0,0.0,49,0.00,,---,0.00,VWS V14.00,2013-08-27 13:53:00,
2013-08-27 08:56:00,79.4,58.6,29.23,South,176,0.0,2.7,49,0.00,,---,0.00,VWS V14.00,2013-08-27 13:56:00,
2013-08-27 09:02:00,79.6,59.3,29.23,South,176,0.0,2.7,50,0.00,,---,0.00,VWS V14.00,2013-08-27 14:02:00,
2013-08-27 09:08:00,79.6,59.3,29.23,South,176,0.0,0.0,50,0.00,,---,0.00,VWS V14.00,2013-08-27 14:08:00,
2013-08-27 09:11:00,79.6,59.3,29.23,South,176,0.0,0.0,50,0.00,,---,0.00,VWS V14.00,2013-08-27 14:11:00,
2013-08-27 09:14:00,79.8,59.5,29.23,South,176,0.0,0.0,50,0.00,,---,0.00,VWS V14.00,2013-08-27 14:14:00,
2013-08-27 09:17:00,79.8,59.5,29.23,South,176,2.7,2.7,50,0.00,,---,0.00,VWS V14.00,2013-08-27 14:17:00,
2013-08-27 09:20:00,79.8,59.5,29.23,South,176,0.0,2.7,50,0.00,,---,0.00,VWS V14.00,2013-08-27 14:20:00,
2013-08-27 09:23:00,79.8,59.5,29.23,South,176,3.1,3.6,50,0.00,,---,0.00,VWS V14.00,2013-08-27 14:23:00,
2013-08-27 09:29:00,79.9,59.7,29.23,South,178,3.6,3.6,50,0.00,,---,0.00,VWS V14.00,2013-08-27 14:29:00,
2013-08-27 09:32:00,79.9,59.7,29.23,South,178,2.7,3.6,50,0.00,,---,0.00,VWS V14.00,2013-08-27 14:32:00,
2013-08-27 09:35:00,79.9,59.7,29.23,South,181,0.0,4.0,50,0.00,,---,0.00,VWS V14.00,2013-08-27 14:35:00,
2013-08-27 09:38:00,79.9,59.7,29.26,South,181,2.7,4.0,50,0.00,,---,0.00,VWS V14.00,2013-08-27 14:38:00,
2013-08-27 09:41:00,79.9,59.7,29.26,South,181,2.2,4.0,50,0.00,,---,0.00,VWS V14.00,2013-08-27 14:41:00,
2013-08-27 09:44:00,80.1,59.8,29.26,South,181,0.0,4.0,50,0.00,,---,0.00,VWS V14.00,2013-08-27 14:44:00,
2013-08-27 09:47:00,80.1,59.8,29.26,South,181,0.0,4.0,50,0.00,,---,0.00,VWS V14.00,2013-08-27 14:47:00,
2013-08-27 09:50:00,80.1,59.8,29.26,SSE,165,3.6,4.0,50,0.00,,---,0.00,VWS V14.00,2013-08-27 14:50:00,
2013-08-27 09:53:00,80.1,60.4,29.26,South,169,3.6,4.0,51,0.00,,---,0.00,VWS V14.00,2013-08-27 14:53:00,
2013-08-27 09:56:00,80.1,60.4,29.26,SSE,159,2.7,4.0,51,0.00,,---,0.00,VWS V14.00,2013-08-27 14:56:00,
2013-08-27 10:02:00,80.3,60.5,29.26,South,177,2.7,4.9,51,0.00,,---,0.00,VWS V14.00,2013-08-27 15:02:00,
2013-08-27 10:08:00,80.3,60.5,29.26,SSE,162,3.6,4.0,51,0.00,,---,0.00,VWS V14.00,2013-08-27 15:08:00,
2013-08-27 10:11:00,80.3,60.5,29.26,SSE,163,3.1,4.0,51,0.00,,---,0.00,VWS V14.00,2013-08-27 15:11:00,
2013-08-27 10:17:00,80.5,60.7,29.26,South,169,2.7,4.0,51,0.00,,---,0.00,VWS V14.00,2013-08-27 15:17:00,
2013-08-27 10:20:00,80.5,60.7,29.26,South,170,3.1,4.0,51,0.00,,---,0.00,VWS V14.00,2013-08-27 15:20:00,
2013-08-27 10:26:00,80.5,60.7,29.26,South,178,2.7,4.9,51,0.00,,---,0.00,VWS V14.00,2013-08-27 15:26:00,
2013-08-27 10:32:00,80.5,60.7,29.26,South,188,2.7,4.9,51,0.00,,---,0.00,VWS V14.00,2013-08-27 15:32:00,
2013-08-27 10:38:00,80.7,60.9,29.26,South,188,0.0,4.0,51,0.00,,---,0.00,VWS V14.00,2013-08-27 15:38:00,
2013-08-27 10:44:00,80.7,61.4,29.26,South,188,2.7,4.0,52,0.00,,---,0.00,VWS V14.00,2013-08-27 15:44:00,
2013-08-27 10:47:00,80.7,61.4,29.26,South,188,2.2,4.0,52,0.00,,---,0.00,VWS V14.00,2013-08-27 15:47:00,
2013-08-27 10:51:00,80.8,61.6,29.26,South,173,0.0,3.1,52,0.00,,---,0.00,VWS V14.00,2013-08-27 15:51:00,
2013-08-27 10:54:00,80.8,61.6,29.23,South,171,3.1,4.0,52,0.00,,---,0.00,VWS V14.00,2013-08-27 15:54:00,
2013-08-27 10:57:00,80.8,61.6,29.23,South,189,4.0,4.0,52,0.00,,---,0.00,VWS V14.00,2013-08-27 15:57:00,
2013-08-27 11:00:00,80.8,61.6,29.23,South,189,2.2,4.0,52,0.00,,---,0.00,VWS V14.00,2013-08-27 16:00:00,
2013-08-27 11:02:00,80.8,61.6,29.23,South,189,0.0,4.0,52,0.00,,---,0.00,VWS V14.00,2013-08-27 16:02:00,
2013-08-27 11:03:00,80.8,61.6,29.23,South,189,0.0,0.0,52,0.00,,---,0.00,VWS V14.00,2013-08-27 16:03:00,
2013-08-27 11:09:00,81.0,61.8,29.23,South,172,2.2,3.1,52,0.00,,---,0.00,VWS V14.00,2013-08-27 16:09:00,
2013-08-27 11:12:00,81.0,61.8,29.23,South,172,0.0,3.1,52,0.00,,---,0.00,VWS V14.00,2013-08-27 16:12:00,
2013-08-27 11:15:00,81.0,61.8,29.23,South,178,0.0,3.1,52,0.00,,---,0.00,VWS V14.00,2013-08-27 16:15:00,
2013-08-27 11:21:00,81.0,61.8,29.23,South,183,0.0,3.1,52,0.00,,---,0.00,VWS V14.00,2013-08-27 16:21:00,
2013-08-27 11:24:00,81.2,61.9,29.26,SSW,203,0.0,3.6,52,0.00,,---,0.00,VWS V14.00,2013-08-27 16:24:00,
2013-08-27 11:30:00,81.2,61.9,29.26,SSW,203,0.0,3.6,52,0.00,,---,0.00,VWS V14.00,2013-08-27 16:30:00,
2013-08-27 11:36:00,81.2,61.9,29.26,SSW,194,3.6,3.6,52,0.00,,---,0.00,VWS V14.00,2013-08-27 16:36:00,
2013-08-27 11:39:00,81.2,61.9,29.23,SSE,165,2.7,4.0,52,0.00,,---,0.00,VWS V14.00,2013-08-27 16:39:00,
2013-08-27 11:42:00,81.4,62.1,29.23,South,181,0.0,4.0,52,0.00,,---,0.00,VWS V14.00,2013-08-27 16:42:00,
2013-08-27 11:45:00,81.4,62.1,29.23,South,171,0.0,4.0,52,0.00,,---,0.00,VWS V14.00,2013-08-27 16:45:00,
2013-08-27 11:47:00,81.4,62.1,29.23,South,171,0.0,4.0,52,0.00,,---,0.00,VWS V14.00,2013-08-27 16:47:00,
2013-08-27 11:48:00,81.4,62.1,29.23,South,170,2.2,2.2,52,0.00,,---,0.00,VWS V14.00,2013-08-27 16:48:00,
2013-08-27 11:51:00,81.4,62.1,29.23,South,170,0.0,3.6,52,0.00,,---,0.00,VWS V14.00,2013-08-27 16:51:00,
2013-08-27 11:54:00,81.4,61.0,29.23,South,170,0.0,3.6,50,0.00,,---,0.00,VWS V14.00,2013-08-27 16:54:00,
2013-08-27 11:57:00,81.2,60.2,29.23,SE,145,3.1,3.6,49,0.00,,---,0.00,VWS V14.00,2013-08-27 16:57:00,
2013-08-27 12:00:00,81.2,60.2,29.23,SE,146,3.6,3.6,49,0.00,,---,0.00,VWS V14.00,2013-08-27 17:00:00,
2013-08-27 12:03:00,81.0,60.1,29.23,SSE,153,3.6,4.0,49,0.00,,---,0.00,VWS V14.00,2013-08-27 17:03:00,
2013-08-27 12:06:00,81.0,60.1,29.23,SSE,153,2.2,4.0,49,0.00,,---,0.00,VWS V14.00,2013-08-27 17:06:00,
2013-08-27 12:09:00,81.0,60.7,29.23,SSE,153,3.6,4.0,50,0.00,,---,0.00,VWS V14.00,2013-08-27 17:09:00,
2013-08-27 12:12:00,81.2,60.8,29.23,SSE,163,2.2,4.0,50,0.00,,---,0.00,VWS V14.00,2013-08-27 17:12:00,
2013-08-27 12:15:00,81.2,60.2,29.23,SSE,163,0.0,4.0,49,0.00,,---,0.00,VWS V14.00,2013-08-27 17:15:00,
2013-08-27 12:18:00,81.2,59.7,29.23,SSE,163,0.0,0.0,48,0.00,,---,0.00,VWS V14.00,2013-08-27 17:18:00,
2013-08-27 12:24:00,80.8,58.8,29.23,South,179,0.0,4.0,47,0.00,,---,0.00,VWS V14.00,2013-08-27 17:24:00,
2013-08-27 12:27:00,80.8,59.3,29.23,South,179,0.0,4.0,48,0.00,,---,0.00,VWS V14.00,2013-08-27 17:27:00,
2013-08-27 12:30:00,80.8,59.3,29.23,South,179,0.0,4.0,48,0.00,,---,0.00,VWS V14.00,2013-08-27 17:30:00,
2013-08-27 12:33:00,80.8,59.3,29.23,South,179,0.0,0.0,48,0.00,,---,0.00,VWS V14.00,2013-08-27 17:33:00,
2013-08-27 12:36:00,81.0,59.5,29.23,South,179,0.0,0.0,48,0.00,,---,0.00,VWS V14.00,2013-08-27 17:36:00,
2013-08-27 12:39:00,81.0,58.9,29.23,South,179,0.0,2.7,47,0.00,,---,0.00,VWS V14.00,2013-08-27 17:39:00,
2013-08-27 12:45:00,80.7,58.0,29.23,South,182,2.7,3.1,46,0.00,,---,0.00,VWS V14.00,2013-08-27 17:45:00,
2013-08-27 12:47:00,80.7,58.0,29.23,South,182,0.0,3.1,46,0.00,,---,0.00,VWS V14.00,2013-08-27 17:47:00,
2013-08-27 12:51:00,80.5,57.8,29.23,South,182,0.0,0.0,46,0.00,,---,0.00,VWS V14.00,2013-08-27 17:51:00,
2013-08-27 12:57:00,80.7,58.6,29.23,South,182,0.0,0.0,47,0.00,,---,0.00,VWS V14.00,2013-08-27 17:57:00,
2013-08-27 13:00:00,80.7,58.6,29.23,South,169,0.0,0.0,47,0.00,,---,0.00,VWS V14.00,2013-08-27 18:00:00,
2013-08-27 13:02:00,80.8,58.2,29.23,South,185,3.6,3.6,46,0.00,,---,0.00,VWS V14.00,2013-08-27 18:02:00,
2013-08-27 13:06:00,80.7,57.4,29.23,South,185,0.0,3.6,45,0.00,,---,0.00,VWS V14.00,2013-08-27 18:06:00,
2013-08-27 13:09:00,80.5,57.2,29.21,NNW,337,2.7,4.0,45,0.00,,---,0.00,VWS V14.00,2013-08-27 18:09:00,
2013-08-27 13:15:00,80.3,57.0,29.21,SSE,160,3.1,4.0,45,0.00,,---,0.00,VWS V14.00,2013-08-27 18:15:00,
2013-08-27 13:17:00,80.3,57.0,29.21,South,175,2.7,4.0,45,0.00,,---,0.00,VWS V14.00,2013-08-27 18:17:00,
2013-08-27 13:18:00,80.5,57.2,29.21,South,175,2.7,3.6,45,0.00,,---,0.00,VWS V14.00,2013-08-27 18:18:00,
2013-08-27 13:21:00,80.5,57.8,29.21,South,184,2.7,3.6,46,0.00,,---,0.00,VWS V14.00,2013-08-27 18:21:00,
2013-08-27 13:24:00,80.7,57.4,29.21,South,184,0.0,3.6,45,0.00,,---,0.00,VWS V14.00,2013-08-27 18:24:00,
2013-08-27 13:27:00,80.5,57.2,29.21,South,184,2.7,3.6,45,0.00,,---,0.00,VWS V14.00,2013-08-27 18:27:00,
2013-08-27 13:30:00,80.5,56.6,29.21,South,184,2.7,3.6,44,0.00,,---,0.00,VWS V14.00,2013-08-27 18:30:00,
2013-08-27 13:33:00,80.3,56.4,29.21,South,184,0.0,0.0,44,0.00,,---,0.00,VWS V14.00,2013-08-27 18:33:00,
2013-08-27 13:36:00,80.1,56.9,29.21,South,184,3.6,3.6,45,0.00,,---,0.00,VWS V14.00,2013-08-27 18:36:00,
2013-08-27 13:39:00,80.1,56.9,29.21,South,184,3.1,3.6,45,0.00,,---,0.00,VWS V14.00,2013-08-27 18:39:00,
2013-08-27 13:42:00,80.3,57.0,29.21,South,184,0.0,3.6,45,0.00,,---,0.00,VWS V14.00,2013-08-27 18:42:00,
2013-08-27 13:47:00,80.5,57.2,29.21,South,184,0.0,3.6,45,0.00,,---,0.00,VWS V14.00,2013-08-27 18:47:00,
2013-08-27 13:48:00,80.5,57.2,29.21,South,184,0.0,0.0,45,0.00,,---,0.00,VWS V14.00,2013-08-27 18:48:00,
2013-08-27 13:51:00,80.5,56.6,29.21,SSW,196,2.7,4.0,44,0.00,,---,0.00,VWS V14.00,2013-08-27 18:51:00,
2013-08-27 13:54:00,80.3,56.4,29.21,SSW,197,0.0,4.0,44,0.00,,---,0.00,VWS V14.00,2013-08-27 18:54:00,
2013-08-27 13:57:00,80.1,56.3,29.21,SSW,196,0.0,4.0,44,0.00,,---,0.00,VWS V14.00,2013-08-27 18:57:00,
2013-08-27 14:02:00,80.1,56.3,29.21,South,172,2.7,4.0,44,0.00,,---,0.00,VWS V14.00,2013-08-27 19:02:00,
2013-08-27 14:03:00,80.1,56.3,29.21,South,172,3.1,3.1,44,0.00,,---,0.00,VWS V14.00,2013-08-27 19:03:00,
2013-08-27 14:09:00,80.3,56.4,29.21,SSW,211,0.0,4.9,44,0.00,,---,0.00,VWS V14.00,2013-08-27 19:09:00,
2013-08-27 14:12:00,80.3,56.4,29.21,SSW,211,0.0,4.9,44,0.00,,---,0.00,VWS V14.00,2013-08-27 19:12:00,
2013-08-27 14:17:00,80.3,56.4,29.21,SE,131,3.6,4.9,44,0.00,,---,0.00,VWS V14.00,2013-08-27 19:17:00,
2013-08-27 14:18:00,80.3,56.4,29.21,SE,132,0.0,3.6,44,0.00,,---,0.00,VWS V14.00,2013-08-27 19:18:00,
2013-08-27 14:21:00,80.1,55.6,29.21,SW,214,3.1,3.6,43,0.00,,---,0.00,VWS V14.00,2013-08-27 19:21:00,
2013-08-27 14:27:00,79.9,56.1,29.21,SE,142,2.2,4.0,44,0.00,,---,0.00,VWS V14.00,2013-08-27 19:27:00,
2013-08-27 14:32:00,80.1,56.3,29.21,North,350,0.0,4.0,44,0.00,,---,0.00,VWS V14.00,2013-08-27 19:32:00,
2013-08-27 14:33:00,80.1,56.3,29.21,NNE,21,0.0,0.0,44,0.00,,---,0.00,VWS V14.00,2013-08-27 19:33:00,
2013-08-27 14:36:00,80.3,56.4,29.21,NNE,21,0.0,0.0,44,0.00,,---,0.00,VWS V14.00,2013-08-27 19:36:00,
2013-08-27 14:42:00,80.1,55.6,29.18,South,175,3.1,4.0,43,0.00,,---,0.00,VWS V14.00,2013-08-27 19:42:00,
2013-08-27 14:45:00,80.1,55.6,29.18,SSE,160,3.6,4.0,43,0.00,,---,0.00,VWS V14.00,2013-08-27 19:45:00,
2013-08-27 14:47:00,79.9,55.5,29.18,South,172,2.7,5.4,43,0.00,,---,0.00,VWS V14.00,2013-08-27 19:47:00,
2013-08-27 14:48:00,79.9,55.5,29.18,South,172,0.0,3.1,43,0.00,,---,0.00,VWS V14.00,2013-08-27 19:48:00,
2013-08-27 14:51:00,79.9,55.5,29.18,SE,143,3.1,3.6,43,0.00,,---,0.00,VWS V14.00,2013-08-27 19:51:00,
2013-08-27 14:54:00,79.9,55.5,29.18,South,173,0.0,4.9,43,0.00,,---,0.00,VWS V14.00,2013-08-27 19:54:00,
2013-08-27 15:00:00,80.1,56.3,29.18,SSW,198,3.6,4.9,44,0.00,,---,0.00,VWS V14.00,2013-08-27 20:00:00,
2013-08-27 15:02:00,80.3,55.8,29.18,SW,233,4.0,4.9,43,0.00,,---,0.00,VWS V14.00,2013-08-27 20:02:00,
2013-08-27 15:06:00,80.3,55.8,29.18,SSW,195,3.1,5.4,43,0.00,,---,0.00,VWS V14.00,2013-08-27 20:06:00,
2013-08-27 15:09:00,80.1,55.6,29.18,SSE,163,4.9,5.4,43,0.00,,---,0.00,VWS V14.00,2013-08-27 20:09:00,
2013-08-27 15:12:00,79.9,55.5,29.18,SE,144,3.6,5.4,43,0.00,,---,0.00,VWS V14.00,2013-08-27 20:12:00,
2013-08-27 15:15:00,79.8,55.3,29.18,SSE,163,3.6,5.4,43,0.00,,---,0.00,VWS V14.00,2013-08-27 20:15:00,
2013-08-27 15:18:00,79.6,54.5,29.18,South,177,3.6,5.4,42,0.00,,---,0.00,VWS V14.00,2013-08-27 20:18:00,
2013-08-27 15:21:00,79.6,55.1,29.18,South,185,0.0,5.4,43,0.00,,---,0.00,VWS V14.00,2013-08-27 20:21:00,
2013-08-27 15:24:00,79.6,55.1,29.18,South,187,2.2,5.4,43,0.00,,---,0.00,VWS V14.00,2013-08-27 20:24:00,
2013-08-27 15:30:00,79.9,55.5,29.18,South,187,0.0,5.4,43,0.00,,---,0.00,VWS V14.00,2013-08-27 20:30:00,
2013-08-27 15:31:00,79.9,55.5,29.18,South,187,2.2,5.4,43,0.00,,---,0.00,VWS V14.00,2013-08-27 20:31:00,
2013-08-27 15:36:00,79.8,54.7,29.18,South,189,3.6,4.0,42,0.00,,---,0.00,VWS V14.00,2013-08-27 20:36:00,
2013-08-27 15:39:00,79.8,54.7,29.18,South,191,0.0,4.0,42,0.00,,---,0.00,VWS V14.00,2013-08-27 20:39:00,
2013-08-27 15:42:00,79.6,54.5,29.18,South,191,3.1,4.0,42,0.00,,---,0.00,VWS V14.00,2013-08-27 20:42:00,
2013-08-27 15:45:00,79.4,54.3,29.18,SSE,157,3.6,4.0,42,0.00,,---,0.00,VWS V14.00,2013-08-27 20:45:00,
2013-08-27 15:47:00,79.4,54.3,29.18,South,170,4.9,4.9,42,0.00,,---,0.00,VWS V14.00,2013-08-27 20:47:00,
2013-08-27 15:51:00,79.4,54.3,29.18,South,175,3.1,4.9,42,0.00,,---,0.00,VWS V14.00,2013-08-27 20:51:00,
2013-08-27 15:54:00,79.4,54.3,29.18,South,175,2.2,4.9,42,0.00,,---,0.00,VWS V14.00,2013-08-27 20:54:00,
2013-08-27 16:00:00,79.8,54.7,29.18,South,175,0.0,4.9,42,0.00,,---,0.00,VWS V14.00,2013-08-27 21:00:00,
2013-08-27 16:02:00,79.8,54.7,29.18,South,175,0.0,4.9,42,0.00,,---,0.00,VWS V14.00,2013-08-27 21:02:00,
2013-08-27 16:03:00,79.8,54.7,29.18,South,175,0.0,0.0,42,0.00,,---,0.00,VWS V14.00,2013-08-27 21:03:00,
2013-08-27 16:06:00,79.6,54.5,29.18,South,175,0.0,0.0,42,0.00,,---,0.00,VWS V14.00,2013-08-27 21:06:00,
2013-08-27 16:12:00,79.4,54.3,29.18,South,175,0.0,0.0,42,0.00,,---,0.00,VWS V14.00,2013-08-27 21:12:00,
2013-08-27 16:19:00,79.2,54.2,29.18,South,175,0.0,0.0,42,0.00,,---,0.00,VWS V14.00,2013-08-27 21:19:00,
2013-08-27 16:25:00,79.4,54.3,29.18,South,179,0.0,3.1,42,0.00,,---,0.00,VWS V14.00,2013-08-27 21:25:00,
2013-08-27 16:28:00,79.6,54.5,29.18,South,179,0.0,3.1,42,0.00,,---,0.00,VWS V14.00,2013-08-27 21:28:00,
2013-08-27 16:31:00,79.6,54.5,29.18,South,179,0.0,3.1,42,0.00,,---,0.00,VWS V14.00,2013-08-27 21:31:00,
2013-08-27 16:34:00,79.4,54.3,29.18,South,179,0.0,0.0,42,0.00,,---,0.00,VWS V14.00,2013-08-27 21:34:00,
2013-08-27 16:37:00,79.2,54.2,29.18,South,179,0.0,0.0,42,0.00,,---,0.00,VWS V14.00,2013-08-27 21:37:00,
2013-08-27 16:40:00,79.2,54.2,29.18,South,179,0.0,0.0,42,0.00,,---,0.00,VWS V14.00,2013-08-27 21:40:00,
2013-08-27 16:47:00,78.9,53.8,29.18,South,179,0.0,0.0,42,0.00,,---,0.00,VWS V14.00,2013-08-27 21:47:00,
2013-08-27 16:49:00,78.9,53.8,29.18,SSW,192,0.0,2.2,42,0.00,,---,0.00,VWS V14.00,2013-08-27 21:49:00,
2013-08-27 16:52:00,79.0,54.0,29.18,SSW,192,0.0,2.2,42,0.00,,---,0.00,VWS V14.00,2013-08-27 21:52:00,
2013-08-27 16:55:00,79.0,54.0,29.15,SSW,192,0.0,2.2,42,0.00,,---,0.00,VWS V14.00,2013-08-27 21:55:00,
2013-08-27 16:58:00,79.2,54.2,29.15,SSW,192,0.0,2.2,42,0.00,,---,0.00,VWS V14.00,2013-08-27 21:58:00,
2013-08-27 17:04:00,79.2,54.2,29.15,SSW,195,0.0,3.6,42,0.00,,---,0.00,VWS V14.00,2013-08-27 22:04:00,
2013-08-27 17:07:00,79.2,54.2,29.15,SSW,195,0.0,3.6,42,0.00,,---,0.00,VWS V14.00,2013-08-27 22:07:00,
2013-08-27 17:10:00,79.0,54.0,29.15,SSW,196,2.2,4.0,42,0.00,,---,0.00,VWS V14.00,2013-08-27 22:10:00,
2013-08-27 17:13:00,78.9,53.2,29.15,SSW,196,0.0,4.0,41,0.00,,---,0.00,VWS V14.00,2013-08-27 22:13:00,
2013-08-27 17:16:00,78.7,53.0,29.15,SSW,196,0.0,4.0,41,0.00,,---,0.00,VWS V14.00,2013-08-27 22:16:00,
2013-08-27 17:19:00,78.7,53.0,29.15,SSW,196,0.0,0.0,41,0.00,,---,0.00,VWS V14.00,2013-08-27 22:19:00,
2013-08-27 17:22:00,78.5,53.5,29.15,SSW,200,0.0,4.0,42,0.00,,---,0.00,VWS V14.00,2013-08-27 22:22:00,
2013-08-27 17:25:00,78.7,53.7,29.15,SSW,200,0.0,4.0,42,0.00,,---,0.00,VWS V14.00,2013-08-27 22:25:00,
2013-08-27 17:28:00,78.9,53.8,29.15,SSW,200,0.0,4.0,42,0.00,,---,0.00,VWS V14.00,2013-08-27 22:28:00,
2013-08-27 17:31:00,78.9,53.8,29.15,SSW,200,0.0,4.0,42,0.00,,---,0.00,VWS V14.00,2013-08-27 22:31:00,
2013-08-27 17:37:00,78.9,53.2,29.15,SSW,198,0.0,5.8,41,0.00,,---,0.00,VWS V14.00,2013-08-27 22:37:00,
2013-08-27 17:40:00,78.9,53.2,29.15,SSW,198,0.0,5.8,41,0.00,,---,0.00,VWS V14.00,2013-08-27 22:40:00,
2013-08-27 17:43:00,78.7,53.0,29.15,SSW,198,0.0,5.8,41,0.00,,---,0.00,VWS V14.00,2013-08-27 22:43:00,
2013-08-27 17:47:00,78.5,52.9,29.15,SSW,198,0.0,5.8,41,0.00,,---,0.00,VWS V14.00,2013-08-27 22:47:00,
2013-08-27 17:49:00,78.3,52.7,29.15,SSW,198,0.0,0.0,41,0.00,,---,0.00,VWS V14.00,2013-08-27 22:49:00,
2013-08-27 17:52:00,78.3,52.7,29.15,SSW,198,0.0,0.0,41,0.00,,---,0.00,VWS V14.00,2013-08-27 22:52:00,
2013-08-27 17:55:00,78.5,52.9,29.15,SSW,198,0.0,0.0,41,0.00,,---,0.00,VWS V14.00,2013-08-27 22:55:00,
2013-08-27 18:01:00,78.7,53.7,29.15,SSW,198,0.0,0.0,42,0.00,,---,0.00,VWS V14.00,2013-08-27 23:01:00,
2013-08-27 18:02:00,78.7,53.7,29.15,SSW,198,0.0,0.0,42,0.00,,---,0.00,VWS V14.00,2013-08-27 23:02:00,
2013-08-27 18:07:00,78.9,53.2,29.15,SSW,198,0.0,0.0,41,0.00,,---,0.00,VWS V14.00,2013-08-27 23:07:00,
2013-08-27 18:10:00,78.7,53.0,29.15,SSW,198,0.0,0.0,41,0.00,,---,0.00,VWS V14.00,2013-08-27 23:10:00,
2013-08-27 18:13:00,78.5,52.9,29.15,SSW,198,0.0,0.0,41,0.00,,---,0.00,VWS V14.00,2013-08-27 23:13:00,
2013-08-27 18:16:00,78.3,52.7,29.15,SSW,198,0.0,0.0,41,0.00,,---,0.00,VWS V14.00,2013-08-27 23:16:00,
2013-08-27 18:19:00,78.3,52.7,29.15,SSW,198,0.0,0.0,41,0.00,,---,0.00,VWS V14.00,2013-08-27 23:19:00,
2013-08-27 18:25:00,78.5,52.9,29.15,SSW,198,0.0,0.0,41,0.00,,---,0.00,VWS V14.00,2013-08-27 23:25:00,
2013-08-27 18:28:00,78.5,52.9,29.15,SSW,198,0.0,0.0,41,0.00,,---,0.00,VWS V14.00,2013-08-27 23:28:00,
2013-08-27 18:31:00,78.7,53.0,29.15,SSW,198,0.0,0.0,41,0.00,,---,0.00,VWS V14.00,2013-08-27 23:31:00,
2013-08-27 18:35:00,78.7,53.0,29.15,SSW,198,0.0,0.0,41,0.00,,---,0.00,VWS V14.00,2013-08-27 23:35:00,
2013-08-27 18:38:00,78.5,52.9,29.15,SSW,198,0.0,0.0,41,0.00,,---,0.00,VWS V14.00,2013-08-27 23:38:00,
2013-08-27 18:41:00,78.5,52.9,29.15,SSW,198,0.0,0.0,41,0.00,,---,0.00,VWS V14.00,2013-08-27 23:41:00,
2013-08-27 18:44:00,78.3,52.7,29.15,SSW,198,0.0,0.0,41,0.00,,---,0.00,VWS V14.00,2013-08-27 23:44:00,
2013-08-27 18:50:00,78.5,52.9,29.15,SSW,198,0.0,0.0,41,0.00,,---,0.00,VWS V14.00,2013-08-27 23:50:00,
2013-08-27 18:56:00,78.7,53.0,29.15,SSW,198,0.0,0.0,41,0.00,,---,0.00,VWS V14.00,2013-08-27 23:56:00,
2013-08-27 18:59:00,78.7,53.0,29.15,SSW,198,0.0,0.0,41,0.00,,---,0.00,VWS V14.00,2013-08-27 23:59:00,
2013-08-27 19:02:00,78.7,53.0,29.15,SSW,198,0.0,0.0,41,0.00,,---,0.00,VWS V14.00,2013-08-28 00:02:00,
2013-08-27 19:05:00,78.5,52.9,29.15,SSW,198,0.0,0.0,41,0.00,,---,0.00,VWS V14.00,2013-08-28 00:05:00,
2013-08-27 19:08:00,78.3,52.7,29.15,SSW,198,0.0,0.0,41,0.00,,---,0.00,VWS V14.00,2013-08-28 00:08:00,
2013-08-27 19:11:00,78.3,52.7,29.15,SSW,198,0.0,0.0,41,0.00,,---,0.00,VWS V14.00,2013-08-28 00:11:00,
2013-08-27 19:14:00,78.3,52.7,29.15,SSW,198,0.0,0.0,41,0.00,,---,0.00,VWS V14.00,2013-08-28 00:14:00,
2013-08-27 19:16:00,78.3,52.7,29.15,SSW,198,0.0,0.0,41,0.00,,---,0.00,VWS V14.00,2013-08-28 00:16:00,
2013-08-27 19:17:00,78.3,52.7,29.15,SSW,198,0.0,0.0,41,0.00,,---,0.00,VWS V14.00,2013-08-28 00:17:00,
2013-08-27 19:23:00,78.5,52.9,29.15,SSW,198,0.0,0.0,41,0.00,,---,0.00,VWS V14.00,2013-08-28 00:23:00,
2013-08-27 19:26:00,78.7,53.0,29.15,SSW,198,0.0,0.0,41,0.00,,---,0.00,VWS V14.00,2013-08-28 00:26:00,
2013-08-27 19:29:00,78.7,53.0,29.15,SSW,198,0.0,0.0,41,0.00,,---,0.00,VWS V14.00,2013-08-28 00:29:00,
2013-08-27 19:32:00,78.5,52.9,29.15,SSW,198,0.0,0.0,41,0.00,,---,0.00,VWS V14.00,2013-08-28 00:32:00,
2013-08-27 19:35:00,78.3,52.7,29.15,SSW,198,0.0,0.0,41,0.00,,---,0.00,VWS V14.00,2013-08-28 00:35:00,
2013-08-27 19:38:00,78.3,52.7,29.15,SSW,198,0.0,0.0,41,0.00,,---,0.00,VWS V14.00,2013-08-28 00:38:00,
2013-08-27 19:41:00,78.3,52.7,29.15,SSW,198,0.0,0.0,41,0.00,,---,0.00,VWS V14.00,2013-08-28 00:41:00,
2013-08-27 19:44:00,78.3,52.7,29.15,SSW,198,0.0,0.0,41,0.00,,---,0.00,VWS V14.00,2013-08-28 00:44:00,
2013-08-27 19:47:00,78.3,52.7,29.15,SSW,198,0.0,0.0,41,0.00,,---,0.00,VWS V14.00,2013-08-28 00:47:00,
2013-08-27 19:50:00,78.5,52.9,29.15,SSW,198,0.0,0.0,41,0.00,,---,0.00,VWS V14.00,2013-08-28 00:50:00,
2013-08-27 19:53:00,78.5,52.9,29.15,SSW,198,0.0,0.0,41,0.00,,---,0.00,VWS V14.00,2013-08-28 00:53:00,
2013-08-27 19:59:00,78.7,53.0,29.15,SSW,198,0.0,0.0,41,0.00,,---,0.00,VWS V14.00,2013-08-28 00:59:00,
2013-08-27 20:02:00,78.7,53.0,29.15,SSW,198,0.0,0.0,41,0.00,,---,0.00,VWS V14.00,2013-08-28 01:02:00,
2013-08-27 20:05:00,78.5,52.9,29.15,SSW,198,0.0,0.0,41,0.00,,---,0.00,VWS V14.00,2013-08-28 01:05:00,
2013-08-27 20:11:00,78.3,52.7,29.15,SSW,198,0.0,0.0,41,0.00,,---,0.00,VWS V14.00,2013-08-28 01:11:00,
2013-08-27 20:17:00,78.5,52.9,29.15,SSW,198,0.0,0.0,41,0.00,,---,0.00,VWS V14.00,2013-08-28 01:17:00,
2013-08-27 20:20:00,78.5,52.9,29.15,SSW,198,0.0,0.0,41,0.00,,---,0.00,VWS V14.00,2013-08-28 01:20:00,
2013-08-27 20:23:00,78.5,52.9,29.15,SSW,198,0.0,0.0,41,0.00,,---,0.00,VWS V14.00,2013-08-28 01:23:00,
2013-08-27 20:26:00,78.5,52.9,29.15,SSW,198,0.0,0.0,41,0.00,,---,0.00,VWS V14.00,2013-08-28 01:26:00,
2013-08-27 20:32:00,78.7,53.0,29.15,SSW,198,0.0,0.0,41,0.00,,---,0.00,VWS V14.00,2013-08-28 01:32:00,
2013-08-27 20:35:00,78.7,53.0,29.15,SSW,198,0.0,0.0,41,0.00,,---,0.00,VWS V14.00,2013-08-28 01:35:00,
2013-08-27 20:38:00,78.7,53.0,29.15,SSW,198,0.0,0.0,41,0.00,,---,0.00,VWS V14.00,2013-08-28 01:38:00,
2013-08-27 20:44:00,78.9,53.8,29.15,SSW,198,0.0,0.0,42,0.00,,---,0.00,VWS V14.00,2013-08-28 01:44:00,
2013-08-27 20:47:00,78.9,53.8,29.15,SSW,198,0.0,0.0,42,0.00,,---,0.00,VWS V14.00,2013-08-28 01:47:00,
2013-08-27 20:50:00,78.9,53.8,29.15,SSW,198,0.0,0.0,42,0.00,,---,0.00,VWS V14.00,2013-08-28 01:50:00,
2013-08-27 20:53:00,78.9,53.8,29.15,SSW,198,0.0,0.0,42,0.00,,---,0.00,VWS V14.00,2013-08-28 01:53:00,
2013-08-27 20:59:00,78.9,53.2,29.18,SSW,198,0.0,0.0,41,0.00,,---,0.00,VWS V14.00,2013-08-28 01:59:00,
2013-08-27 21:02:00,78.7,53.0,29.18,SSW,198,0.0,0.0,41,0.00,,---,0.00,VWS V14.00,2013-08-28 02:02:00,
2013-08-27 21:05:00,78.5,52.9,29.18,SSW,198,0.0,0.0,41,0.00,,---,0.00,VWS V14.00,2013-08-28 02:05:00,
2013-08-27 21:08:00,78.5,52.9,29.18,SSW,198,0.0,0.0,41,0.00,,---,0.00,VWS V14.00,2013-08-28 02:08:00,
2013-08-27 21:11:00,78.7,53.0,29.18,SSW,198,0.0,0.0,41,0.00,,---,0.00,VWS V14.00,2013-08-28 02:11:00,
2013-08-27 21:14:00,78.7,53.7,29.18,SSW,198,0.0,0.0,42,0.00,,---,0.00,VWS V14.00,2013-08-28 02:14:00,
2013-08-27 21:17:00,78.7,53.7,29.18,SSW,198,0.0,0.0,42,0.00,,---,0.00,VWS V14.00,2013-08-28 02:17:00,
2013-08-27 21:20:00,78.7,53.7,29.18,SSW,198,0.0,0.0,42,0.00,,---,0.00,VWS V14.00,2013-08-28 02:20:00,
2013-08-27 21:23:00,78.9,53.8,29.18,SSW,198,0.0,0.0,42,0.00,,---,0.00,VWS V14.00,2013-08-28 02:23:00,
2013-08-27 21:26:00,78.9,53.8,29.18,SSW,198,0.0,0.0,42,0.00,,---,0.00,VWS V14.00,2013-08-28 02:26:00,
2013-08-27 21:29:00,78.9,53.8,29.18,SSW,198,0.0,0.0,42,0.00,,---,0.00,VWS V14.00,2013-08-28 02:29:00,
2013-08-27 21:32:00,78.9,53.8,29.18,SSW,198,0.0,0.0,42,0.00,,---,0.00,VWS V14.00,2013-08-28 02:32:00,
2013-08-27 21:39:00,78.9,53.8,29.18,SSW,198,0.0,0.0,42,0.00,,---,0.00,VWS V14.00,2013-08-28 02:39:00,
2013-08-27 21:42:00,79.0,54.0,29.18,SSW,198,0.0,0.0,42,0.00,,---,0.00,VWS V14.00,2013-08-28 02:42:00,
2013-08-27 21:47:00,79.0,54.0,29.18,SSW,198,0.0,0.0,42,0.00,,---,0.00,VWS V14.00,2013-08-28 02:47:00,
2013-08-27 21:51:00,79.0,54.0,29.18,SSW,198,0.0,0.0,42,0.00,,---,0.00,VWS V14.00,2013-08-28 02:51:00,
2013-08-27 21:54:00,79.0,54.0,29.18,SSW,198,0.0,0.0,42,0.00,,---,0.00,VWS V14.00,2013-08-28 02:54:00,
2013-08-27 21:57:00,79.2,54.2,29.18,SSW,198,0.0,0.0,42,0.00,,---,0.00,VWS V14.00,2013-08-28 02:57:00,
2013-08-27 22:00:00,79.2,54.2,29.18,SSW,198,0.0,0.0,42,0.00,,---,0.00,VWS V14.00,2013-08-28 03:00:00,
2013-08-27 22:03:00,79.2,54.2,29.18,SSW,198,0.0,0.0,42,0.00,,---,0.00,VWS V14.00,2013-08-28 03:03:00,
2013-08-27 22:09:00,79.2,54.2,29.18,SSW,198,0.0,0.0,42,0.00,,---,0.00,VWS V14.00,2013-08-28 03:09:00,
2013-08-27 22:12:00,79.2,54.2,29.18,SSW,198,0.0,0.0,42,0.00,,---,0.00,VWS V14.00,2013-08-28 03:12:00,
2013-08-27 22:15:00,79.4,54.3,29.18,SSW,198,0.0,0.0,42,0.00,,---,0.00,VWS V14.00,2013-08-28 03:15:00,
2013-08-27 22:18:00,79.4,54.3,29.18,SSW,198,0.0,0.0,42,0.00,,---,0.00,VWS V14.00,2013-08-28 03:18:00,
2013-08-27 22:21:00,79.4,54.3,29.18,SSW,198,0.0,0.0,42,0.00,,---,0.00,VWS V14.00,2013-08-28 03:21:00,
2013-08-27 22:24:00,79.4,54.3,29.18,SSW,198,0.0,0.0,42,0.00,,---,0.00,VWS V14.00,2013-08-28 03:24:00,
2013-08-27 22:27:00,79.4,54.3,29.18,SSW,198,0.0,0.0,42,0.00,,---,0.00,VWS V14.00,2013-08-28 03:27:00,
2013-08-27 22:30:00,79.4,54.3,29.18,SSW,198,0.0,0.0,42,0.00,,---,0.00,VWS V14.00,2013-08-28 03:30:00,
2013-08-27 22:32:00,79.4,54.3,29.18,SSW,198,0.0,0.0,42,0.00,,---,0.00,VWS V14.00,2013-08-28 03:32:00,
2013-08-27 22:33:00,79.4,54.3,29.18,SSW,198,0.0,0.0,42,0.00,,---,0.00,VWS V14.00,2013-08-28 03:33:00,
2013-08-27 22:39:00,79.6,55.1,29.18,SSW,198,0.0,0.0,43,0.00,,---,0.00,VWS V14.00,2013-08-28 03:39:00,
2013-08-27 22:42:00,79.6,54.5,29.18,SSW,198,0.0,0.0,42,0.00,,---,0.00,VWS V14.00,2013-08-28 03:42:00,
2013-08-27 22:48:00,79.2,54.2,29.18,SSW,198,0.0,0.0,42,0.00,,---,0.00,VWS V14.00,2013-08-28 03:48:00,
2013-08-27 22:54:00,79.0,54.0,29.18,SSW,198,0.0,0.0,42,0.00,,---,0.00,VWS V14.00,2013-08-28 03:54:00,
2013-08-27 22:57:00,79.0,54.0,29.18,SSW,198,0.0,0.0,42,0.00,,---,0.00,VWS V14.00,2013-08-28 03:57:00,
2013-08-27 23:00:00,79.2,54.8,29.18,SSW,198,0.0,0.0,43,0.00,,---,0.00,VWS V14.00,2013-08-28 04:00:00,
2013-08-27 23:02:00,79.2,54.8,29.18,SSW,198,0.0,0.0,43,0.00,,---,0.00,VWS V14.00,2013-08-28 04:02:00,
2013-08-27 23:03:00,79.2,54.8,29.18,SSW,198,0.0,0.0,43,0.00,,---,0.00,VWS V14.00,2013-08-28 04:03:00,
2013-08-27 23:07:00,79.2,54.8,29.18,SSW,198,0.0,0.0,43,0.00,,---,0.00,VWS V14.00,2013-08-28 04:07:00,
2013-08-27 23:13:00,79.2,54.8,29.18,SSW,198,0.0,0.0,43,0.00,,---,0.00,VWS V14.00,2013-08-28 04:13:00,
2013-08-27 23:17:00,79.2,54.8,29.18,SSW,198,0.0,0.0,43,0.00,,---,0.00,VWS V14.00,2013-08-28 04:17:00,
2013-08-27 23:19:00,79.2,54.8,29.18,SSW,198,0.0,0.0,43,0.00,,---,0.00,VWS V14.00,2013-08-28 04:19:00,
2013-08-27 23:22:00,79.2,54.8,29.18,SSW,198,0.0,0.0,43,0.00,,---,0.00,VWS V14.00,2013-08-28 04:22:00,
2013-08-27 23:25:00,79.4,55.0,29.18,SSW,198,0.0,0.0,43,0.00,,---,0.00,VWS V14.00,2013-08-28 04:25:00,
2013-08-27 23:28:00,79.4,55.0,29.18,SSW,198,0.0,0.0,43,0.00,,---,0.00,VWS V14.00,2013-08-28 04:28:00,
2013-08-27 23:31:00,79.4,55.0,29.18,SSW,198,0.0,0.0,43,0.00,,---,0.00,VWS V14.00,2013-08-28 04:31:00,
2013-08-27 23:34:00,79.4,55.0,29.18,SSW,198,0.0,0.0,43,0.00,,---,0.00,VWS V14.00,2013-08-28 04:34:00,
2013-08-27 23:37:00,79.4,55.0,29.18,SSW,198,0.0,0.0,43,0.00,,---,0.00,VWS V14.00,2013-08-28 04:37:00,
2013-08-27 23:40:00,79.4,55.0,29.18,SSW,198,0.0,0.0,43,0.00,,---,0.00,VWS V14.00,2013-08-28 04:40:00,
2013-08-27 23:43:00,79.4,55.0,29.18,SSW,198,0.0,0.0,43,0.00,,---,0.00,VWS V14.00,2013-08-28 04:43:00,
2013-08-27 23:46:00,79.4,55.0,29.18,SSW,198,0.0,0.0,43,0.00,,---,0.00,VWS V14.00,2013-08-28 04:46:00,
2013-08-27 23:47:00,79.4,55.0,29.18,SSW,198,0.0,0.0,43,0.00,,---,0.00,VWS V14.00,2013-08-28 04:47:00,
2013-08-27 23:49:00,79.4,55.0,29.18,SSW,198,0.0,0.0,43,0.00,,---,0.00,VWS V14.00,2013-08-28 04:49:00,
2013-08-27 23:52:00,79.6,55.1,29.18,SSW,198,0.0,0.0,43,0.00,,---,0.00,VWS V14.00,2013-08-28 04:52:00,
2013-08-27 23:55:00,79.6,55.1,29.18,SSW,198,0.0,0.0,43,0.00,,---,0.00,VWS V14.00,2013-08-28 04:55:00,
2013-08-27 23:58:00,79.6,55.1,29.18,SSW,198,0.0,0.0,43,0.00,,---,0.00,VWS V14.00,2013-08-28 04:58:00,